Regional Weather Roundup
Issued by NWS Little Rock, AR

Home | Current Version | Previous Version | Graphics & Text | Print | Product List | Glossary On
Versions: 1 2 3 4 5 6 7 8 9 10 11 12 13 14 15 16 17 18 19 20 21 22 23 24 25 26 27 28 29 30 31 32 33 34 35 36 37 38 39 40 41 42 43 44 45 46 47 48 49 50
842
ASUS44 KLZK 301905
RWRLZK

WEATHER ROUNDUP FOR ARKANSAS
NATIONAL WEATHER SERVICE LITTLE ROCK AR
200 PM CDT SAT APR 30 2016

NOTE: "FAIR" INDICATES FEW OR NO CLOUDS BELOW 12,000 FEET WITH NO
SIGNIFICANT WEATHER AND/OR OBSTRUCTIONS TO VISIBILITY.

ARZ001-003-010-029-302000-
NORTHWEST ARKANSAS

CITY           SKY/WX    TMP DP  RH WIND       PRES   REMARKS
FAYETTEVILLE   PTSUNNY   70  65  84 W9        29.76S
FORT SMITH     MOSUNNY   75  63  66 W14G21    29.73R
HARRISON       PTSUNNY   77  61  57 W8        29.72F
BENTONVILLE    CLOUDY    66  59  77 W12       29.78R
ROGERS         CLOUDY    66  63  88 W10G21    29.77S
SILOAM SPGS    CLOUDY    63  54  72 W10       29.79R
HIGHFILL       CLOUDY    67  63  87 W10       29.77R
SPRINGDALE     PTSUNNY   68  63  83 W13       29.78R
$$

ARZ004-005-016-302000-
NORTH CENTRAL ARKANSAS

CITY           SKY/WX    TMP DP  RH WIND       PRES   REMARKS
BATESVILLE     MOSUNNY   73  63  68 S6        29.76F
FLIPPIN        CLOUDY   N/A N/A N/A CALM      29.70F
MTN HOME       PTSUNNY   72  61  68 MISG      29.73F
$$

ARZ040-041-302000-
WEST CENTRAL ARKANSAS

CITY           SKY/WX    TMP DP  RH WIND       PRES   REMARKS
MENA           MOSUNNY   81  66  61 SW6       29.74S
MOUNT IDA      PTSUNNY   77  64  64 VRB3      29.72R
$$

ARZ009-017-025-026-028-302000-
NORTHEAST ARKANSAS

CITY           SKY/WX    TMP DP  RH WIND       PRES   REMARKS
CORNING          N/A     70  63  78 S6        29.78F
JONESBORO      CLOUDY    71  61  70 SW9       29.78F
NEWPORT        CLOUDY    73  63  71 S10       29.77F
WALNUT RIDGE   CLOUDY    72  61  68 SW10      29.78F
BLYTHEVILLE    CLOUDY    72  61  68 SW10      29.81F
$$

ARZ022-023-033-042-044-302000-
CENTRAL ARKANSAS

CITY           SKY/WX    TMP DP  RH WIND       PRES   REMARKS
LITTLE ROCK    PTSUNNY   75  62  64 SW8       29.74F
N LITTLE ROCK    N/A     74  64  71 SW6       29.73F
JACKSONVILLE   CLOUDY    75  63  66 SW12      29.73F
SEARCY         CLOUDY    73  63  70 VRB6      29.76F
HOT SPRINGS    MOSUNNY   76  63  64 S7        29.75F
RUSSELLVILLE   MOSUNNY   74  63  68 S6        29.72F
$$

ARZ036-302000-
EAST ARKANSAS

CITY           SKY/WX    TMP DP  RH WIND       PRES   REMARKS
WEST MEMPHIS   CLOUDY    71  63  75 S7        29.76F
$$

ARZ050-053-066-070-073-302000-
SOUTHWEST ARKANSAS

CITY           SKY/WX    TMP DP  RH WIND       PRES   REMARKS
ARKADELPHIA    FAIR      75  69  81 VRB3      29.76S
CAMDEN         SUNNY     81  63  54 S6        29.73F
TEXARKANA      MOSUNNY   78  65  63 S8        29.73S
EL DORADO      LGT RAIN  79  64  60 S18       29.72F
DE QUEEN       PTSUNNY   77  66  68 MISG      29.71S
$$

ARZ056-057-069-302000-
SOUTHEAST ARKANSAS

CITY           SKY/WX    TMP DP  RH WIND       PRES   REMARKS
PINE BLUFF     PTSUNNY   74  61  63 SW9       29.74S
STUTTGART      CLOUDY    73  61  64 SW8       29.77R
MONTICELLO     CLOUDY    76  62  62 SE12G22   29.72F

$$






USA.gov is the U.S. government's official web portal to all federal, state and local government web resources and services.